User: anonymous
Location: Pine Mountain Observatory
(43.7910°N, 120.9377°W)
Time: 02:38:25
(UTC-07:00)
Language:

Meteor 2-19 Rocket - Orbit

View from above orbital plane
View from above orbital plane
View from above satellite
View from above satellite

Ground track
Ground track

The orbit data is extracted from the following two-line orbital elements,

1 20671U 90057B   14260.70041014  .00000041  00000-0  23696-4 0   757
2 20671 082.5435 089.7578 0014099 253.2904 154.6640 13.84576470224208
Epoch (UTC): 17 September 2014 16:48:35
Eccentricity: 0.0014099
inclination: 82.5435°
perigee height: 937 km
apogee height: 958 km
right ascension of ascending node: 89.7578°
argument of perigee: 253.2904°
revolutions per day: 13.84576470
mean anomaly at epoch: 154.6640°
orbit number at epoch: 22420

The dashed part of the orbit path shows where the satellite is in the earth's shadow,  

DLR